This is the latest recevied weather packets stored in our database for station/object KD9JB-1. If no packets are shown the sender has not sent any weather packets the latest 10 day(s).
| Time | Temp. | Humidity | Pressure | Rain* | Wind** | Luminosity | Snow |
|---|---|---|---|---|---|---|---|
| 1777665405 | 15° C | 46% | 1017 hPa | 0 mm | - | - | - |
| 1777665105 | 15° C | 45% | 1016.9 hPa | 0 mm | - | - | - |
| 1777664805 | 15.56° C | 45% | 1016.9 hPa | 0 mm | - | - | - |
| 1777664505 | 16.11° C | 44% | 1016.9 hPa | 0 mm | - | - | - |
| 1777664205 | 16.67° C | 42% | 1016.9 hPa | 0 mm | - | - | - |
| 1777663905 | 16.11° C | 47% | 1016.9 hPa | 0 mm | - | - | - |
| 1777663605 | 15.56° C | 47% | 1017 hPa | 0 mm | - | - | - |
| 1777663305 | 16.67° C | 46% | 1017 hPa | 0 mm | - | - | - |
| 1777663005 | 16.67° C | 44% | 1016.9 hPa | 0 mm | - | - | - |
| 1777662705 | 16.11° C | 44% | 1017 hPa | 0 mm | - | - | - |
| 1777662405 | 15.56° C | 46% | 1016.9 hPa | 0 mm | - | - | - |
| 1777662105 | 14.44° C | 45% | 1016.9 hPa | 0 mm | - | - | - |
| 1777661805 | 15.56° C | 41% | 1016.9 hPa | 0 mm | - | - | - |
| 1777661505 | 15.56° C | 48% | 1017.1 hPa | 0 mm | - | - | - |
| 1777661205 | 14.44° C | 51% | 1017.1 hPa | 0 mm | - | - | - |
| 1777660905 | 15° C | 48% | 1017.1 hPa | 0 mm | - | - | - |
| 1777660605 | 15.56° C | 47% | 1017 hPa | 0 mm | - | - | - |
| 1777660305 | 15.56° C | 45% | 1017 hPa | 0 mm | - | - | - |
| 1777660005 | 15.56° C | 46% | 1016.9 hPa | 0 mm | - | - | - |
| 1777659705 | 15.56° C | 45% | 1017 hPa | 0 mm | - | - | - |
| 1777659405 | 16.11° C | 47% | 1017 hPa | 0 mm | - | - | - |
| 1777659105 | 16.11° C | 44% | 1017 hPa | 0 mm | - | - | - |
| 1777658805 | 15.56° C | 48% | 1017 hPa | 0 mm | - | - | - |
| 1777658505 | 15.56° C | 49% | 1017 hPa | 0 mm | - | - | - |
| 1777658205 | 15° C | 49% | 1017 hPa | 0 mm | - | - | - |
* Rain latest hour (hover to see other rain measurements)
** Current wind speed in m/s (hover to see current wind gust speed)